Tracking 30109 objects as of 12-Dec-2024
HD Live streaming from Space Station
objects crossing your sky now

NSTAR A

Track NSTAR A now!
NSTAR A is classified as:


NORAD ID: 23651
Int'l Code: 1995-044A
Perigee: 36,046.8 km
Apogee: 36,187.1 km
Inclination: 12.5 °
Period: 1,452.6 minutes
Semi major axis: 42487 km
RCS: 15.8489 m2 (large)
Launch date: August 29, 1995
Source: Japan (JPN)
Launch site: FRENCH GUIANA (FRGUI)

Voice and TV broadcast to Japan and neighboring region.
Your satellite tracking list
Your tracking list is empty




NASA's NSSDC Master Catalog

Two Line Element Set (TLE):
1 23651U 95044A   24346.50327023 -.00000247  00000-0  00000-0 0  9994
2 23651  12.5468  25.2339 0016507 348.5616 206.8065  0.99129710106430
Source of the keplerian elements: AFSPC